| time (UTC) | temp F | wind direction | speed MPH | gust MPH | rain 1hr in | rain 24hr in | rain mn in | humidity % | barometer mb |
| 20260903141002 | 78 | 105 | 2.0 | 4.0 | 0.00 | 0.68 | 0.25 | 88 | 1013.5 |
| 20260903140748 | 78 | 104 | 2.0 | 4.0 | 0.00 | 0.68 | 0.25 | 88 | 1013.5 |
| 20260903140502 | 78 | 99 | 2.0 | 4.0 | 0.00 | 0.68 | 0.25 | 87 | 1013.6 |
| 20260903140248 | 78 | 85 | 2.0 | 4.0 | 0.00 | 0.68 | 0.25 | 87 | 1013.6 |
| 20260903140002 | 78 | 56 | 2.0 | 4.0 | 0.00 | 0.68 | 0.25 | 87 | 1013.6 |
| 20260903135748 | 79 | 337 | 1.0 | 4.0 | 0.00 | 0.68 | 0.25 | 87 | 1013.8 |
| 20260903135502 | 79 | 304 | 1.0 | 3.0 | 0.00 | 0.68 | 0.25 | 87 | 1013.9 |
| 20260903135248 | 79 | 293 | 1.0 | 3.0 | 0.00 | 0.68 | 0.25 | 87 | 1013.7 |
| 20260903135002 | 79 | 287 | 1.0 | 3.0 | 0.00 | 0.68 | 0.25 | 87 | 1013.7 |
| 20260903134748 | 78 | 287 | 1.0 | 3.0 | 0.00 | 0.68 | 0.25 | 88 | 1013.7 |
| 20260903134502 | 78 | 287 | 1.0 | 3.0 | 0.00 | 0.68 | 0.25 | 87 | 1013.9 |
| 20260903134248 | 78 | 287 | 1.0 | 4.0 | 0.00 | 0.68 | 0.25 | 88 | 1013.8 |
| 20260903134002 | 78 | 287 | 1.0 | 4.0 | 0.00 | 0.68 | 0.25 | 89 | 1013.8 |
| 20260903133748 | 78 | 287 | 1.0 | 4.0 | 0.00 | 0.68 | 0.25 | 89 | 1013.8 |
| 20260903133502 | 78 | 288 | 2.0 | 4.0 | 0.00 | 0.68 | 0.25 | 89 | 1013.8 |
| 20260903133248 | 77 | 285 | 2.0 | 3.0 | 0.00 | 0.68 | 0.25 | 90 | 1013.9 |
| 20260903133023 | 77 | 284 | 2.0 | 3.0 | 0.00 | 0.68 | 0.25 | 90 | 1013.9 |
| 20260903132748 | 77 | 282 | 1.0 | 3.0 | 0.00 | 0.68 | 0.25 | 90 | 1013.8 |
| 20260903132502 | 77 | 278 | 1.0 | 3.0 | 0.00 | 0.68 | 0.25 | 90 | 1013.9 |
| 20260903132248 | 77 | 276 | 1.0 | 3.0 | 0.00 | 0.68 | 0.25 | 91 | 1013.8 |
| 20260903132023 | 77 | 276 | 1.0 | 3.0 | 0.00 | 0.68 | 0.25 | 91 | 1013.8 |
| 20260903131748 | 76 | 276 | 1.0 | 4.0 | 0.00 | 0.68 | 0.25 | 91 | 1013.7 |
| 20260903131523 | 76 | 276 | 1.0 | 4.0 | 0.00 | 0.68 | 0.25 | 92 | 1013.7 |
| 20260903131248 | 76 | 275 | 2.0 | 4.0 | 0.00 | 0.68 | 0.25 | 92 | 1013.7 |
| 20260903131024 | 76 | 275 | 2.0 | 4.0 | 0.00 | 0.68 | 0.25 | 92 | 1013.8 |
| 20260903130748 | 76 | 273 | 2.0 | 4.0 | 0.00 | 0.68 | 0.25 | 92 | 1013.8 |
| 20260903130502 | 76 | 272 | 2.0 | 4.0 | 0.00 | 0.68 | 0.25 | 92 | 1013.7 |
| 20260903130248 | 76 | 271 | 2.0 | 4.0 | 0.00 | 0.68 | 0.25 | 93 | 1013.7 |
| 20260903125748 | 76 | 272 | 1.0 | 4.0 | 0.00 | 0.68 | 0.25 | 93 | 1013.9 |
| 20260903125503 | 76 | 273 | 1.0 | 4.0 | 0.00 | 0.68 | 0.25 | 93 | 1013.8 |
| 20260903125247 | 75 | 267 | 1.0 | 6.0 | 0.00 | 0.68 | 0.25 | 93 | 1013.9 |
| 20260903125002 | 75 | 266 | 1.0 | 6.0 | 0.00 | 0.68 | 0.25 | 94 | 1014.0 |
| 20260903124747 | 75 | 264 | 1.0 | 6.0 | 0.00 | 0.68 | 0.25 | 94 | 1014.0 |
| 20260903124502 | 75 | 264 | 2.0 | 6.0 | 0.00 | 0.68 | 0.25 | 94 | 1014.0 |
| 20260903124247 | 74 | 265 | 2.0 | 6.0 | 0.00 | 0.68 | 0.25 | 94 | 1014.1 |
| 20260903124003 | 74 | 265 | 2.0 | 6.0 | 0.00 | 0.68 | 0.25 | 94 | 1014.1 |
| 20260903123747 | 74 | 265 | 2.0 | 6.0 | 0.00 | 0.68 | 0.25 | 94 | 1014.1 |
| 20260903123502 | 74 | 265 | 2.0 | 6.0 | 0.00 | 0.68 | 0.25 | 94 | 1014.1 |
| 20260903123247 | 74 | 266 | 2.0 | 4.0 | 0.00 | 0.68 | 0.25 | 95 | 1014.3 |
| 20260903123002 | 74 | 266 | 2.0 | 4.0 | 0.00 | 0.68 | 0.25 | 95 | 1014.2 |
| 20260903122747 | 73 | 266 | 1.0 | 4.0 | 0.00 | 0.68 | 0.25 | 95 | 1014.4 |
| 20260903122506 | 73 | 266 | 1.0 | 4.0 | 0.00 | 0.68 | 0.25 | 95 | 1014.3 |
| 20260903122247 | 73 | 266 | 1.0 | 3.0 | 0.00 | 0.68 | 0.25 | 95 | 1014.3 |
| 20260903122002 | 73 | 266 | 1.0 | 3.0 | 0.00 | 0.68 | 0.25 | 95 | 1014.3 |
| 20260903121747 | 72 | 266 | 1.0 | 3.0 | 0.00 | 0.68 | 0.25 | 95 | 1014.2 |
| 20260903121505 | 72 | 266 | 2.0 | 4.0 | 0.00 | 0.68 | 0.25 | 95 | 1014.3 |
| 20260903121247 | 72 | 266 | 2.0 | 4.0 | 0.00 | 0.68 | 0.25 | 94 | 1014.2 |
| 20260903121002 | 72 | 266 | 2.0 | 4.0 | 0.00 | 0.68 | 0.25 | 94 | 1014.2 |
| 20260903120747 | 72 | 266 | 1.0 | 4.0 | 0.00 | 0.68 | 0.25 | 94 | 1014.2 |
| 20260903120503 | 72 | 266 | 1.0 | 4.0 | 0.00 | 0.68 | 0.25 | 94 | 1014.2 |
| 20260903120247 | 72 | 266 | 1.0 | 4.0 | 0.00 | 0.68 | 0.25 | 95 | 1014.2 |
| 20260903120002 | 72 | 266 | 1.0 | 4.0 | 0.00 | 0.68 | 0.25 | 94 | 1014.1 |
| 20260903115747 | 72 | 266 | 0.0 | 2.0 | 0.00 | 0.68 | 0.25 | 94 | 1014.2 |
| 20260903115524 | 71 | 266 | 0.0 | 2.0 | 0.00 | 0.68 | 0.25 | 94 | 1014.0 |
| 20260903115247 | 71 | 266 | 0.0 | 2.0 | 0.00 | 0.68 | 0.25 | 94 | 1014.0 |
| 20260903115003 | 71 | 266 | 0.0 | 2.0 | 0.00 | 0.68 | 0.25 | 94 | 1014.1 |
| 20260903114746 | 71 | 266 | 0.0 | 2.0 | 0.00 | 0.68 | 0.25 | 94 | 1014.0 |
| 20260903114502 | 71 | 266 | 0.0 | 2.0 | 0.00 | 0.68 | 0.25 | 94 | 1013.9 |
| 20260903114246 | 71 | 266 | 0.0 | 1.0 | 0.00 | 0.68 | 0.25 | 94 | 1013.9 |
| 20260903114002 | 71 | 0 | 0.0 | 0.0 | 0.00 | 0.68 | 0.25 | 94 | 1013.9 |
| 20260903113746 | 71 | 0 | 0.0 | 0.0 | 0.00 | 0.68 | 0.25 | 94 | 1013.9 |
| 20260903113524 | 71 | 0 | 0.0 | 0.0 | 0.00 | 0.68 | 0.25 | 94 | 1014.0 |
| 20260903113246 | 71 | 0 | 0.0 | 0.0 | 0.00 | 0.68 | 0.25 | 94 | 1013.9 |
| 20260903113002 | 71 | 0 | 0.0 | 0.0 | 0.00 | 0.68 | 0.25 | 94 | 1013.9 |
| 20260903112746 | 71 | 0 | 0.0 | 0.0 | 0.00 | 0.68 | 0.25 | 94 | 1013.9 |
| 20260903112502 | 71 | 266 | 0.0 | 1.0 | 0.00 | 0.68 | 0.25 | 94 | 1013.8 |
| 20260903112246 | 71 | 266 | 0.0 | 3.0 | 0.00 | 0.68 | 0.25 | 94 | 1013.7 |
| 20260903112024 | 71 | 266 | 1.0 | 3.0 | 0.00 | 0.68 | 0.25 | 94 | 1013.7 |
| 20260903111746 | 71 | 266 | 1.0 | 3.0 | 0.00 | 0.68 | 0.25 | 94 | 1013.7 |
| 20260903111503 | 71 | 266 | 1.0 | 3.0 | 0.00 | 0.68 | 0.25 | 94 | 1013.8 |
| 20260903111246 | 71 | 265 | 1.0 | 3.0 | 0.00 | 0.68 | 0.25 | 94 | 1013.7 |
| 20260903111002 | 71 | 265 | 1.0 | 3.0 | 0.00 | 0.68 | 0.25 | 94 | 1013.6 |
| 20260903110746 | 71 | 265 | 1.0 | 3.0 | 0.00 | 0.68 | 0.25 | 94 | 1013.7 |
| 20260903110527 | 71 | 265 | 1.0 | 3.0 | 0.00 | 0.68 | 0.25 | 93 | 1013.6 |
| 20260903110246 | 71 | 265 | 0.0 | 3.0 | 0.00 | 0.68 | 0.25 | 93 | 1013.6 |
| 20260903110002 | 71 | 265 | 0.0 | 3.0 | 0.00 | 0.68 | 0.25 | 93 | 1013.6 |
| 20260903105746 | 71 | 0 | 0.0 | 0.0 | 0.00 | 0.68 | 0.25 | 93 | 1013.5 |
| 20260903105502 | 71 | 0 | 0.0 | 0.0 | 0.00 | 0.68 | 0.25 | 93 | 1013.5 |
| 20260903105246 | 71 | 0 | 0.0 | 0.0 | 0.00 | 0.68 | 0.25 | 93 | 1013.4 |
| 20260903105002 | 71 | 0 | 0.0 | 0.0 | 0.00 | 0.68 | 0.25 | 93 | 1013.4 |
| 20260903104745 | 71 | 0 | 0.0 | 0.0 | 0.00 | 0.68 | 0.25 | 93 | 1013.4 |
| 20260903104506 | 71 | 0 | 0.0 | 0.0 | 0.00 | 0.68 | 0.25 | 93 | 1013.4 |
| 20260903104245 | 71 | 0 | 0.0 | 0.0 | 0.00 | 0.68 | 0.25 | 93 | 1013.4 |
| 20260903104002 | 71 | 0 | 0.0 | 0.0 | 0.00 | 0.68 | 0.25 | 93 | 1013.3 |
| 20260903103745 | 71 | 0 | 0.0 | 0.0 | 0.00 | 0.68 | 0.25 | 93 | 1013.4 |
| 20260903103523 | 71 | 0 | 0.0 | 0.0 | 0.00 | 0.68 | 0.25 | 93 | 1013.4 |
| 20260903103245 | 71 | 0 | 0.0 | 0.0 | 0.00 | 0.68 | 0.25 | 93 | 1013.4 |
| 20260903103002 | 71 | 0 | 0.0 | 0.0 | 0.00 | 0.68 | 0.25 | 93 | 1013.3 |
| 20260903102745 | 71 | 0 | 0.0 | 0.0 | 0.00 | 0.68 | 0.25 | 93 | 1013.3 |
| 20260903102503 | 71 | 0 | 0.0 | 0.0 | 0.00 | 0.68 | 0.25 | 93 | 1013.3 |
| 20260903102245 | 71 | 0 | 0.0 | 0.0 | 0.00 | 0.68 | 0.25 | 93 | 1013.4 |
| 20260903102003 | 71 | 0 | 0.0 | 0.0 | 0.00 | 0.68 | 0.25 | 93 | 1013.4 |
| 20260903101745 | 71 | 265 | 0.0 | 1.0 | 0.00 | 0.68 | 0.25 | 93 | 1013.3 |
| 20260903101503 | 71 | 265 | 0.0 | 4.0 | 0.00 | 0.68 | 0.25 | 93 | 1013.3 |
| 20260903101245 | 71 | 269 | 1.0 | 4.0 | 0.00 | 0.68 | 0.25 | 93 | 1013.3 |
| 20260903101023 | 71 | 271 | 1.0 | 4.0 | 0.00 | 0.68 | 0.25 | 93 | 1013.3 |
| 20260903100745 | 71 | 272 | 2.0 | 4.0 | 0.00 | 0.68 | 0.25 | 93 | 1013.3 |
| 20260903100502 | 71 | 271 | 2.0 | 6.0 | 0.00 | 0.68 | 0.25 | 93 | 1013.3 |
| 20260903100245 | 70 | 264 | 3.0 | 6.0 | 0.01 | 0.68 | 0.25 | 93 | 1013.2 |
| 20260903100003 | 70 | 262 | 3.0 | 6.0 | 0.01 | 0.68 | 0.25 | 93 | 1013.2 |
| 20260903095745 | 70 | 262 | 3.0 | 6.0 | 0.01 | 0.68 | 0.25 | 93 | 1013.2 |
| 20260903095503 | 70 | 264 | 2.0 | 5.0 | 0.01 | 0.68 | 0.25 | 93 | 1013.2 |
| 20260903095245 | 70 | 273 | 2.0 | 5.0 | 0.01 | 0.68 | 0.25 | 93 | 1013.2 |
| 20260903095006 | 70 | 275 | 2.0 | 6.0 | 0.01 | 0.68 | 0.25 | 93 | 1013.3 |
| 20260903094745 | 70 | 276 | 2.0 | 6.0 | 0.01 | 0.68 | 0.25 | 93 | 1013.3 |
| 20260903094502 | 70 | 277 | 2.0 | 6.0 | 0.01 | 0.68 | 0.25 | 93 | 1013.2 |
| 20260903094245 | 70 | 278 | 1.0 | 6.0 | 0.01 | 0.68 | 0.25 | 93 | 1013.3 |
| 20260903094023 | 70 | 279 | 1.0 | 6.0 | 0.01 | 0.68 | 0.25 | 93 | 1013.2 |
| 20260903093745 | 70 | 284 | 1.0 | 6.0 | 0.01 | 0.68 | 0.25 | 93 | 1013.2 |
| 20260903093523 | 70 | 288 | 1.0 | 6.0 | 0.01 | 0.68 | 0.25 | 93 | 1013.2 |
| 20260903093245 | 70 | 288 | 1.0 | 6.0 | 0.01 | 0.68 | 0.25 | 93 | 1013.2 |
| 20260903093003 | 70 | 285 | 1.0 | 6.0 | 0.01 | 0.68 | 0.25 | 93 | 1013.2 |
| 20260903092745 | 70 | 275 | 1.0 | 6.0 | 0.01 | 0.68 | 0.25 | 93 | 1013.2 |
| 20260903092503 | 70 | 271 | 1.0 | 6.0 | 0.01 | 0.68 | 0.25 | 93 | 1013.2 |
| 20260903092245 | 70 | 265 | 1.0 | 4.0 | 0.01 | 0.68 | 0.25 | 93 | 1013.1 |
| 20260903092002 | 70 | 265 | 1.0 | 4.0 | 0.01 | 0.68 | 0.25 | 93 | 1013.0 |
| 20260903091744 | 70 | 265 | 1.0 | 4.0 | 0.01 | 0.68 | 0.25 | 93 | 1013.1 |
| 20260903091505 | 70 | 265 | 1.0 | 4.0 | 0.01 | 0.68 | 0.25 | 93 | 1013.1 |
| 20260903091244 | 70 | 265 | 0.0 | 3.0 | 0.01 | 0.68 | 0.25 | 93 | 1013.0 |
| 20260903091003 | 70 | 266 | 0.0 | 3.0 | 0.01 | 0.68 | 0.25 | 93 | 1013.0 |
| 20260903090744 | 70 | 266 | 1.0 | 3.0 | 0.01 | 0.68 | 0.25 | 92 | 1013.0 |
| 20260903090503 | 70 | 266 | 1.0 | 3.0 | 0.01 | 0.68 | 0.25 | 92 | 1013.0 |
| 20260903090244 | 70 | 266 | 1.0 | 3.0 | 0.00 | 0.67 | 0.24 | 92 | 1013.0 |
| 20260903090024 | 71 | 266 | 1.0 | 3.0 | 0.00 | 0.67 | 0.24 | 92 | 1013.0 |
| 20260903085744 | 71 | 266 | 1.0 | 3.0 | 0.00 | 0.67 | 0.24 | 92 | 1013.1 |
| 20260903085503 | 71 | 266 | 1.0 | 3.0 | 0.00 | 0.67 | 0.24 | 92 | 1013.0 |
| 20260903085244 | 71 | 266 | 0.0 | 3.0 | 0.02 | 0.67 | 0.24 | 92 | 1013.0 |
| 20260903085003 | 71 | 266 | 0.0 | 3.0 | 0.02 | 0.67 | 0.24 | 92 | 1012.9 |
| 20260903084744 | 71 | 266 | 0.0 | 2.0 | 0.04 | 0.67 | 0.24 | 92 | 1012.9 |
| 20260903084503 | 71 | 266 | 0.0 | 2.0 | 0.05 | 0.67 | 0.24 | 92 | 1012.9 |
| 20260903084244 | 71 | 266 | 0.0 | 2.0 | 0.06 | 0.67 | 0.24 | 92 | 1013.0 |
| 20260903084023 | 71 | 266 | 0.0 | 3.0 | 0.06 | 0.67 | 0.24 | 92 | 1013.0 |
| 20260903083744 | 71 | 266 | 1.0 | 3.0 | 0.07 | 0.67 | 0.24 | 92 | 1013.0 |
| 20260903083502 | 71 | 266 | 1.0 | 3.0 | 0.07 | 0.67 | 0.24 | 92 | 1013.0 |
| 20260903083244 | 71 | 266 | 1.0 | 3.0 | 0.07 | 0.67 | 0.24 | 92 | 1013.0 |
| 20260903083006 | 71 | 266 | 1.0 | 3.0 | 0.07 | 0.67 | 0.24 | 92 | 1012.9 |
| 20260903082744 | 71 | 266 | 1.0 | 3.0 | 0.07 | 0.67 | 0.24 | 92 | 1013.0 |
| 20260903082503 | 72 | 266 | 1.0 | 3.0 | 0.07 | 0.67 | 0.24 | 92 | 1013.0 |
| 20260903082244 | 72 | 266 | 1.0 | 3.0 | 0.07 | 0.67 | 0.24 | 92 | 1012.8 |
| 20260903082023 | 72 | 266 | 1.0 | 3.0 | 0.07 | 0.67 | 0.24 | 92 | 1012.9 |
| 20260903081744 | 72 | 266 | 0.0 | 2.0 | 0.08 | 0.67 | 0.24 | 91 | 1012.7 |
| 20260903081505 | 72 | 266 | 0.0 | 2.0 | 0.10 | 0.67 | 0.24 | 91 | 1012.8 |
| 20260903081244 | 72 | 266 | 0.0 | 2.0 | 0.11 | 0.67 | 0.24 | 91 | 1012.7 |
| 20260903081003 | 72 | 266 | 0.0 | 12.0 | 0.11 | 0.67 | 0.24 | 91 | 1012.7 |
| 20260903080744 | 72 | 266 | 1.0 | 12.0 | 0.12 | 0.67 | 0.24 | 91 | 1012.8 |
| 20260903080503 | 72 | 266 | 1.0 | 12.0 | 0.12 | 0.67 | 0.24 | 91 | 1012.8 |
| 20260903080244 | 72 | 276 | 1.0 | 12.0 | 0.12 | 0.67 | 0.24 | 91 | 1012.6 |
| 20260903080024 | 72 | 285 | 2.0 | 12.0 | 0.12 | 0.67 | 0.24 | 91 | 1012.5 |
| 20260903075744 | 72 | 267 | 4.0 | 15.0 | 0.12 | 0.67 | 0.24 | 91 | 1012.7 |
| 20260903075503 | 72 | 259 | 5.0 | 15.0 | 0.12 | 0.67 | 0.24 | 91 | 1012.8 |
| 20260903075243 | 72 | 257 | 7.0 | 17.0 | 0.10 | 0.65 | 0.22 | 92 | 1013.4 |
| 20260903075005 | 72 | 254 | 7.0 | 17.0 | 0.10 | 0.65 | 0.22 | 92 | 1013.3 |
| 20260903074743 | 72 | 255 | 5.0 | 17.0 | 0.08 | 0.63 | 0.20 | 92 | 1013.5 |
| 20260903074503 | 72 | 262 | 5.0 | 17.0 | 0.08 | 0.62 | 0.19 | 92 | 1013.2 |
| 20260903074243 | 71 | 259 | 3.0 | 10.0 | 0.09 | 0.61 | 0.18 | 92 | 1012.4 |
| 20260903074003 | 71 | 251 | 3.0 | 10.0 | 0.11 | 0.61 | 0.18 | 91 | 1012.2 |
| 20260903073743 | 71 | 251 | 3.0 | 10.0 | 0.14 | 0.60 | 0.17 | 91 | 1012.6 |
| 20260903073503 | 71 | 256 | 3.0 | 10.0 | 0.15 | 0.60 | 0.17 | 91 | 1012.7 |
| 20260903073243 | 71 | 276 | 2.0 | 9.0 | 0.15 | 0.60 | 0.17 | 91 | 1013.1 |
| 20260903073002 | 71 | 292 | 2.0 | 5.0 | 0.16 | 0.60 | 0.17 | 91 | 1013.1 |
| 20260903072743 | 71 | 324 | 1.0 | 4.0 | 0.16 | 0.60 | 0.17 | 91 | 1012.7 |
| 20260903072506 | 71 | 321 | 1.0 | 4.0 | 0.16 | 0.60 | 0.17 | 91 | 1012.7 |
| 20260903072243 | 71 | 307 | 2.0 | 5.0 | 0.16 | 0.60 | 0.17 | 91 | 1012.6 |
| 20260903072003 | 71 | 290 | 2.0 | 5.0 | 0.16 | 0.60 | 0.17 | 91 | 1012.6 |
| 20260903071743 | 71 | 281 | 2.0 | 5.0 | 0.15 | 0.59 | 0.16 | 91 | 1012.5 |
| 20260903071523 | 71 | 277 | 1.0 | 5.0 | 0.13 | 0.57 | 0.15 | 91 | 1012.9 |
| 20260903071243 | 71 | 252 | 1.0 | 4.0 | 0.12 | 0.56 | 0.13 | 91 | 1012.8 |
| 20260903071002 | 71 | 258 | 1.0 | 4.0 | 0.12 | 0.56 | 0.13 | 90 | 1012.7 |
| 20260903070743 | 71 | 261 | 2.0 | 8.0 | 0.11 | 0.55 | 0.12 | 90 | 1012.6 |
| 20260903070506 | 71 | 255 | 3.0 | 9.0 | 0.11 | 0.55 | 0.12 | 90 | 1012.8 |
| 20260903070243 | 71 | 244 | 5.0 | 13.0 | 0.11 | 0.55 | 0.12 | 90 | 1012.8 |
| 20260903070003 | 71 | 239 | 5.0 | 13.0 | 0.11 | 0.55 | 0.12 | 90 | 1012.9 |
| 20260903065743 | 71 | 238 | 6.0 | 14.0 | 0.11 | 0.55 | 0.12 | 90 | 1013.0 |
| 20260903065502 | 71 | 241 | 6.0 | 14.0 | 0.11 | 0.55 | 0.12 | 90 | 1013.2 |
| 20260903065243 | 71 | 253 | 6.0 | 14.0 | 0.11 | 0.55 | 0.12 | 90 | 1013.3 |
| 20260903065002 | 71 | 268 | 6.0 | 16.0 | 0.11 | 0.55 | 0.12 | 90 | 1013.3 |
| 20260903064743 | 71 | 277 | 8.0 | 19.0 | 0.11 | 0.55 | 0.12 | 91 | 1013.1 |
| 20260903064503 | 72 | 280 | 8.0 | 19.0 | 0.10 | 0.54 | 0.11 | 91 | 1012.9 |
| 20260903064243 | 72 | 285 | 9.0 | 19.0 | 0.08 | 0.52 | 0.09 | 92 | 1013.2 |
| 20260903064003 | 72 | 288 | 8.0 | 19.0 | 0.04 | 0.48 | 0.05 | 93 | 1013.9 |
| 20260903063743 | 72 | 294 | 5.0 | 14.0 | 0.01 | 0.45 | 0.02 | 94 | 1013.5 |
| 20260903063503 | 72 | 301 | 5.0 | 14.0 | 0.01 | 0.45 | 0.02 | 94 | 1012.9 |
| 20260903063242 | 72 | 307 | 3.0 | 9.0 | 0.00 | 0.44 | 0.01 | 94 | 1012.8 |
| 20260903063003 | 72 | 309 | 3.0 | 9.0 | 0.00 | 0.44 | 0.01 | 94 | 1012.6 |
| 20260903062742 | 72 | 313 | 2.0 | 5.0 | 0.00 | 0.44 | 0.01 | 94 | 1012.6 |
| 20260903062523 | 72 | 314 | 2.0 | 5.0 | 0.00 | 0.44 | 0.01 | 94 | 1012.8 |
| 20260903062242 | 72 | 320 | 1.0 | 4.0 | 0.00 | 0.44 | 0.01 | 94 | 1012.6 |
| 20260903062003 | 72 | 320 | 1.0 | 4.0 | 0.00 | 0.44 | 0.01 | 94 | 1012.6 |
| 20260903061742 | 72 | 0 | 0.0 | 0.0 | 0.00 | 0.44 | 0.01 | 94 | 1012.5 |
| 20260903061524 | 72 | 0 | 0.0 | 0.0 | 0.00 | 0.44 | 0.01 | 93 | 1012.4 |
| 20260903061242 | 72 | 0 | 0.0 | 0.0 | 0.01 | 0.44 | 0.01 | 93 | 1012.4 |
| 20260903061002 | 72 | 0 | 0.0 | 0.0 | 0.01 | 0.44 | 0.01 | 93 | 1012.5 |
| 20260903060742 | 72 | 0 | 0.0 | 0.0 | 0.01 | 0.44 | 0.01 | 93 | 1012.6 |
| 20260903060503 | 72 | 0 | 0.0 | 0.0 | 0.01 | 0.44 | 0.01 | 93 | 1012.5 |
| 20260903060242 | 72 | 0 | 0.0 | 0.0 | 0.01 | 0.44 | 0.01 | 93 | 1012.5 |
| 20260903060003 | 72 | 0 | 0.0 | 0.0 | 0.01 | 0.44 | 0.01 | 93 | 1012.6 |
| 20260903055742 | 72 | 0 | 0.0 | 0.0 | 0.01 | 0.44 | 0.01 | 93 | 1012.7 |
| 20260903055506 | 72 | 0 | 0.0 | 0.0 | 0.01 | 0.44 | 0.01 | 93 | 1012.8 |
| 20260903055242 | 72 | 0 | 0.0 | 0.0 | 0.01 | 0.44 | 0.01 | 93 | 1012.9 |
| 20260903055024 | 72 | 0 | 0.0 | 0.0 | 0.01 | 0.44 | 0.01 | 93 | 1012.8 |
| 20260903054742 | 72 | 0 | 0.0 | 0.0 | 0.01 | 0.44 | 0.01 | 93 | 1012.8 |
| 20260903054524 | 72 | 0 | 0.0 | 0.0 | 0.01 | 0.44 | 0.01 | 93 | 1012.9 |
| 20260903054242 | 72 | 0 | 0.0 | 0.0 | 0.01 | 0.44 | 0.01 | 93 | 1013.0 |
| 20260903054003 | 72 | 0 | 0.0 | 0.0 | 0.01 | 0.44 | 0.01 | 93 | 1012.9 |
| 20260903053742 | 72 | 0 | 0.0 | 0.0 | 0.01 | 0.44 | 0.01 | 93 | 1012.9 |
| 20260903053524 | 72 | 0 | 0.0 | 0.0 | 0.01 | 0.44 | 0.01 | 93 | 1012.8 |
| 20260903053242 | 72 | 0 | 0.0 | 0.0 | 0.01 | 0.44 | 0.01 | 93 | 1012.9 |
| 20260903053006 | 72 | 0 | 0.0 | 0.0 | 0.01 | 0.44 | 0.01 | 93 | 1012.9 |
| 20260903052741 | 72 | 321 | 0.0 | 3.0 | 0.01 | 0.44 | 0.01 | 92 | 1012.9 |
| 20260903052503 | 72 | 321 | 1.0 | 3.0 | 0.01 | 0.44 | 0.01 | 92 | 1012.8 |
| 20260903052241 | 72 | 315 | 2.0 | 4.0 | 0.01 | 0.44 | 0.01 | 93 | 1013.0 |
| 20260903052003 | 72 | 309 | 2.0 | 5.0 | 0.01 | 0.44 | 0.01 | 92 | 1013.2 |
| 20260903051741 | 72 | 308 | 2.0 | 5.0 | 0.01 | 0.44 | 0.01 | 92 | 1013.0 |
| 20260903051506 | 72 | 304 | 1.0 | 5.0 | 0.01 | 0.44 | 0.01 | 93 | 1013.2 |
| 20260903051241 | 72 | 296 | 0.0 | 5.0 | 0.00 | 0.43 | 0.00 | 93 | 1013.3 |
| 20260903051003 | 72 | 295 | 0.0 | 3.0 | 0.00 | 0.43 | 0.00 | 93 | 1013.2 |
| 20260903050741 | 72 | 295 | 0.0 | 2.0 | 0.00 | 0.43 | 0.00 | 92 | 1013.2 |
| 20260903050506 | 72 | 295 | 0.0 | 2.0 | 0.00 | 0.43 | 0.00 | 92 | 1013.1 |
| 20260903050241 | 72 | 295 | 1.0 | 3.0 | 0.00 | 0.43 | 0.00 | 92 | 1013.1 |
| 20260903050024 | 72 | 295 | 1.0 | 3.0 | 0.00 | 0.43 | 0.00 | 92 | 1013.3 |
| 20260903045741 | 72 | 295 | 1.0 | 3.0 | 0.01 | 0.43 | 0.00 | 92 | 1013.3 |
| 20260903045506 | 72 | 295 | 1.0 | 5.0 | 0.01 | 0.43 | 0.00 | 92 | 1013.3 |
| 20260903045241 | 72 | 292 | 1.0 | 5.0 | 0.01 | 0.43 | 0.00 | 92 | 1013.3 |
| 20260903045003 | 72 | 291 | 1.0 | 5.0 | 0.02 | 0.43 | 0.00 | 92 | 1013.2 |
| 20260903044741 | 72 | 289 | 1.0 | 5.0 | 0.03 | 0.43 | 0.00 | 92 | 1013.2 |
| 20260903044503 | 72 | 283 | 0.0 | 3.0 | 0.03 | 0.43 | 0.00 | 92 | 1013.3 |
| 20260903044241 | 72 | 0 | 0.0 | 0.0 | 0.04 | 0.43 | 0.00 | 92 | 1013.2 |
| 20260903044003 | 72 | 0 | 0.0 | 0.0 | 0.05 | 0.43 | 0.00 | 92 | 1013.2 |
| 20260903043741 | 72 | 0 | 0.0 | 0.0 | 0.05 | 0.43 | 0.00 | 92 | 1013.3 |
| 20260903043505 | 72 | 0 | 0.0 | 0.0 | 0.06 | 0.43 | 0.00 | 92 | 1013.3 |
| 20260903043241 | 72 | 0 | 0.0 | 0.0 | 0.07 | 0.43 | 0.00 | 92 | 1013.2 |
| 20260903043003 | 72 | 0 | 0.0 | 0.0 | 0.07 | 0.43 | 0.00 | 92 | 1013.3 |
| 20260903042741 | 72 | 282 | 0.0 | 1.0 | 0.09 | 0.43 | 0.00 | 91 | 1013.4 |
| 20260903042503 | 72 | 282 | 0.0 | 2.0 | 0.13 | 0.43 | 0.00 | 91 | 1013.5 |
| 20260903042240 | 72 | 282 | 0.0 | 2.0 | 0.20 | 0.43 | 0.00 | 91 | 1013.2 |
| 20260903042003 | 72 | 282 | 0.0 | 2.0 | 0.21 | 0.43 | 0.00 | 91 | 1013.1 |
| 20260903041740 | 72 | 282 | 0.0 | 2.0 | 0.27 | 0.43 | 0.00 | 91 | 1013.0 |
| 20260903041524 | 72 | 282 | 0.0 | 1.0 | 0.31 | 0.43 | 0.00 | 91 | 1012.9 |
| 20260903041240 | 72 | 282 | 1.0 | 3.0 | 0.32 | 0.43 | 0.00 | 90 | 1013.0 |
| 20260903041003 | 72 | 282 | 1.0 | 3.0 | 0.34 | 0.43 | 0.00 | 90 | 1013.2 |
| 20260903040740 | 73 | 282 | 1.0 | 3.0 | 0.38 | 0.43 | 0.00 | 90 | 1013.4 |
| 20260903040503 | 73 | 278 | 1.0 | 3.0 | 0.41 | 0.43 | 0.00 | 90 | 1013.4 |
| 20260903040240 | 73 | 270 | 1.0 | 4.0 | 0.43 | 0.43 | 0.00 | 90 | 1013.4 |
| 20260903040024 | 73 | 268 | 1.0 | 4.0 | 0.43 | 0.43 | 0.00 | 90 | 1013.2 |
| 20260903035740 | 73 | 266 | 2.0 | 6.0 | 0.42 | 0.42 | 0.42 | 89 | 1013.2 |
| 20260903035504 | 73 | 261 | 2.0 | 13.0 | 0.42 | 0.42 | 0.42 | 89 | 1013.2 |
| 20260903035240 | 73 | 275 | 4.0 | 13.0 | 0.42 | 0.42 | 0.42 | 89 | 1013.5 |
| 20260903035024 | 74 | 273 | 5.0 | 13.0 | 0.41 | 0.41 | 0.41 | 89 | 1014.0 |
| 20260903034740 | 74 | 278 | 5.0 | 13.0 | 0.40 | 0.40 | 0.40 | 89 | 1013.9 |
| 20260903034524 | 74 | 283 | 6.0 | 12.0 | 0.40 | 0.40 | 0.40 | 89 | 1013.8 |
| 20260903034240 | 74 | 275 | 5.0 | 12.0 | 0.38 | 0.38 | 0.38 | 89 | 1013.9 |
| 20260903034003 | 74 | 273 | 4.0 | 12.0 | 0.38 | 0.38 | 0.38 | 89 | 1014.0 |
| 20260903033740 | 75 | 263 | 2.0 | 11.0 | 0.38 | 0.38 | 0.38 | 89 | 1014.0 |
| 20260903033504 | 75 | 232 | 2.0 | 11.0 | 0.37 | 0.37 | 0.37 | 89 | 1014.0 |
| 20260903033240 | 75 | 214 | 2.0 | 7.0 | 0.36 | 0.36 | 0.36 | 88 | 1013.6 |
| 20260903033003 | 75 | 237 | 2.0 | 7.0 | 0.36 | 0.36 | 0.36 | 88 | 1013.3 |
| 20260903032740 | 75 | 248 | 3.0 | 7.0 | 0.32 | 0.32 | 0.32 | 87 | 1012.8 |
| 20260903032503 | 76 | 260 | 3.0 | 7.0 | 0.28 | 0.28 | 0.28 | 87 | 1013.2 |
| 20260903032240 | 76 | 276 | 3.0 | 4.0 | 0.23 | 0.23 | 0.23 | 86 | 1013.5 |
| 20260903032027 | 76 | 282 | 3.0 | 4.0 | 0.20 | 0.20 | 0.21 | 86 | 1013.5 |
| 20260903031740 | 76 | 294 | 2.0 | 4.0 | 0.16 | 0.16 | 0.16 | 86 | 1013.3 |
| 20260903031503 | 77 | 309 | 1.0 | 4.0 | 0.12 | 0.12 | 0.12 | 86 | 1013.3 |
| 20260903031240 | 77 | 358 | 1.0 | 4.0 | 0.10 | 0.10 | 0.10 | 85 | 1013.0 |
| 20260903031003 | 77 | 30 | 1.0 | 4.0 | 0.08 | 0.08 | 0.08 | 84 | 1012.5 |
| 20260903030739 | 77 | 35 | 1.0 | 4.0 | 0.04 | 0.04 | 0.04 | 84 | 1012.6 |
| 20260903030503 | 78 | 38 | 1.0 | 4.0 | 0.01 | 0.01 | 0.01 | 84 | 1012.5 |
| 20260903030239 | 78 | 52 | 1.0 | 4.0 | 0.00 | 0.00 | 0.00 | 83 | 1012.5 |
| 20260903030024 | 78 | 64 | 1.0 | 4.0 | 0.00 | 0.00 | 0.00 | 83 | 1012.5 |
| 20260903025739 | 78 | 75 | 2.0 | 5.0 | 0.00 | 0.00 | 0.00 | 82 | 1012.5 |
| 20260903025506 | 78 | 80 | 2.0 | 5.0 | 0.00 | 0.00 | 0.00 | 82 | 1012.4 |
| 20260903025239 | 78 | 84 | 2.0 | 5.0 | 0.00 | 0.00 | 0.00 | 81 | 1012.3 |
| 20260903025003 | 78 | 80 | 2.0 | 7.0 | 0.00 | 0.00 | 0.00 | 81 | 1012.0 |
| 20260903024739 | 78 | 74 | 2.0 | 7.0 | 0.00 | 0.00 | 0.00 | 80 | 1011.7 |
| 20260903024506 | 78 | 73 | 2.0 | 7.0 | 0.00 | 0.00 | 0.00 | 80 | 1011.7 |
| 20260903024239 | 78 | 75 | 2.0 | 7.0 | 0.00 | 0.00 | 0.00 | 80 | 1011.4 |
| 20260903024003 | 78 | 83 | 2.0 | 7.0 | 0.00 | 0.00 | 0.00 | 80 | 1011.5 |
| 20260903023739 | 78 | 87 | 2.0 | 4.0 | 0.00 | 0.00 | 0.00 | 80 | 1011.9 |
| 20260903023527 | 78 | 80 | 2.0 | 5.0 | 0.00 | 0.00 | 0.00 | 80 | 1011.9 |
| 20260903023239 | 78 | 83 | 2.0 | 5.0 | 0.00 | 0.00 | 0.00 | 79 | 1011.7 |
| 20260903023003 | 78 | 63 | 2.0 | 5.0 | 0.00 | 0.00 | 0.00 | 79 | 1011.9 |
| 20260903022739 | 79 | 49 | 2.0 | 5.0 | 0.00 | 0.00 | 0.00 | 79 | 1012.0 |
| 20260903022507 | 79 | 51 | 2.0 | 6.0 | 0.00 | 0.00 | 0.00 | 79 | 1011.9 |
| 20260903022239 | 79 | 41 | 2.0 | 6.0 | 0.00 | 0.00 | 0.00 | 79 | 1012.0 |
| 20260903022003 | 79 | 57 | 2.0 | 6.0 | 0.00 | 0.00 | 0.00 | 79 | 1011.9 |
| 20260903021739 | 79 | 66 | 2.0 | 6.0 | 0.00 | 0.00 | 0.00 | 79 | 1012.0 |
| 20260903021503 | 80 | 75 | 2.0 | 6.0 | 0.00 | 0.00 | 0.00 | 79 | 1011.9 |
| 20260903021239 | 80 | 77 | 2.0 | 6.0 | 0.00 | 0.00 | 0.00 | 79 | 1011.9 |
| 20260903021004 | 80 | 69 | 2.0 | 5.0 | 0.00 | 0.00 | 0.00 | 79 | 1011.9 |
| 20260903020739 | 80 | 72 | 2.0 | 6.0 | 0.00 | 0.00 | 0.00 | 78 | 1012.2 |
| 20260903020525 | 81 | 70 | 2.0 | 6.0 | 0.00 | 0.00 | 0.00 | 77 | 1012.2 |
| 20260903020239 | 81 | 66 | 2.0 | 6.0 | 0.00 | 0.00 | 0.00 | 76 | 1012.2 |
| 20260903020024 | 82 | 68 | 2.0 | 6.0 | 0.00 | 0.00 | 0.00 | 76 | 1012.1 |
| 20260903015738 | 82 | 71 | 2.0 | 6.0 | 0.00 | 0.00 | 0.00 | 75 | 1012.1 |
| 20260903015503 | 83 | 70 | 2.0 | 6.0 | 0.00 | 0.00 | 0.00 | 74 | 1012.0 |
| 20260903015238 | 84 | 69 | 2.0 | 7.0 | 0.00 | 0.00 | 0.00 | 72 | 1011.9 |
| 20260903015006 | 84 | 67 | 2.0 | 7.0 | 0.00 | 0.00 | 0.00 | 71 | 1011.9 |
| 20260903014738 | 86 | 55 | 2.0 | 7.0 | 0.00 | 0.00 | 0.00 | 70 | 1011.7 |
| 20260903014503 | 86 | 53 | 2.0 | 7.0 | 0.00 | 0.00 | 0.00 | 69 | 1011.9 |
| 20260903014238 | 88 | 32 | 2.0 | 6.0 | 0.00 | 0.00 | 0.00 | 67 | 1011.9 |
| 20260903014003 | 88 | 326 | 2.0 | 6.0 | 0.00 | 0.00 | 0.00 | 67 | 1011.8 |
| 20260903013738 | 89 | 280 | 2.0 | 6.0 | 0.00 | 0.00 | 0.00 | 65 | 1011.8 |
| 20260903013506 | 89 | 262 | 2.0 | 6.0 | 0.00 | 0.00 | 0.00 | 65 | 1011.7 |
| 20260903013238 | 90 | 271 | 1.0 | 4.0 | 0.00 | 0.00 | 0.00 | 65 | 1011.6 |
| 20260903013003 | 90 | 261 | 1.0 | 6.0 | 0.00 | 0.00 | 0.00 | 65 | 1011.5 |
| 20260903012738 | 90 | 236 | 1.0 | 6.0 | 0.00 | 0.00 | 0.00 | 64 | 1011.6 |
| 20260903012503 | 90 | 233 | 1.0 | 6.0 | 0.00 | 0.00 | 0.00 | 64 | 1011.6 |
| 20260903012238 | 90 | 231 | 1.0 | 6.0 | 0.00 | 0.00 | 0.00 | 64 | 1011.6 |
| 20260903012003 | 90 | 226 | 1.0 | 4.0 | 0.00 | 0.00 | 0.00 | 63 | 1011.6 |
| 20260903011738 | 90 | 221 | 1.0 | 4.0 | 0.00 | 0.00 | 0.00 | 63 | 1011.6 |
| 20260903011507 | 90 | 211 | 1.0 | 4.0 | 0.00 | 0.00 | 0.00 | 63 | 1011.5 |
| 20260903011238 | 90 | 203 | 1.0 | 5.0 | 0.00 | 0.00 | 0.00 | 63 | 1011.6 |
| 20260903011025 | 90 | 218 | 1.0 | 5.0 | 0.00 | 0.00 | 0.00 | 62 | 1011.6 |
| 20260903010738 | 90 | 223 | 2.0 | 5.0 | 0.00 | 0.00 | 0.00 | 62 | 1011.5 |
| 20260903010524 | 90 | 236 | 2.0 | 5.0 | 0.00 | 0.00 | 0.00 | 62 | 1011.5 |
| 20260903010238 | 91 | 257 | 2.0 | 5.0 | 0.00 | 0.00 | 0.00 | 62 | 1011.4 |
| 20260903010003 | 91 | 260 | 2.0 | 7.0 | 0.00 | 0.00 | 0.00 | 61 | 1011.5 |
| 20260903005738 | 91 | 271 | 2.0 | 7.0 | 0.00 | 0.00 | 0.00 | 61 | 1011.4 |
| 20260903005524 | 91 | 265 | 2.0 | 7.0 | 0.00 | 0.00 | 0.00 | 61 | 1011.4 |
| 20260903005237 | 91 | 256 | 2.0 | 7.0 | 0.00 | 0.00 | 0.00 | 60 | 1011.5 |
| 20260903005004 | 91 | 254 | 2.0 | 5.0 | 0.00 | 0.00 | 0.00 | 60 | 1011.5 |
| 20260903004737 | 91 | 247 | 2.0 | 4.0 | 0.00 | 0.00 | 0.00 | 59 | 1011.4 |
| 20260903004524 | 91 | 244 | 1.0 | 4.0 | 0.00 | 0.00 | 0.00 | 59 | 1011.4 |
| 20260903004237 | 91 | 241 | 1.0 | 5.0 | 0.00 | 0.00 | 0.00 | 59 | 1011.4 |
| 20260903004027 | 91 | 240 | 1.0 | 5.0 | 0.00 | 0.00 | 0.00 | 58 | 1011.3 |
| 20260903003707 | 92 | 247 | 2.0 | 6.0 | 0.00 | 0.00 | 0.00 | 58 | 1011.3 |
| 20260903003502 | 92 | 253 | 2.0 | 6.0 | 0.00 | 0.00 | 0.00 | 58 | 1011.3 |
| 20260903003207 | 92 | 260 | 2.0 | 6.0 | 0.00 | 0.00 | 0.00 | 58 | 1011.2 |
| 20260903003001 | 92 | 264 | 2.0 | 12.0 | 0.00 | 0.00 | 0.00 | 58 | 1011.3 |
| 20260903002707 | 92 | 271 | 2.0 | 12.0 | 0.00 | 0.00 | 0.00 | 57 | 1011.1 |
| 20260903002502 | 92 | 272 | 2.0 | 12.0 | 0.00 | 0.00 | 0.00 | 57 | 1011.1 |
| 20260903002207 | 92 | 280 | 1.0 | 12.0 | 0.00 | 0.00 | 0.00 | 57 | 1011.0 |
| 20260903002002 | 92 | 288 | 1.0 | 3.0 | 0.00 | 0.00 | 0.00 | 57 | 1011.0 |
| 20260903001707 | 92 | 286 | 2.0 | 6.0 | 0.00 | 0.00 | 0.00 | 56 | 1011.0 |
| 20260903001502 | 92 | 271 | 3.0 | 11.0 | 0.00 | 0.00 | 0.00 | 56 | 1011.1 |
| 20260903001207 | 92 | 267 | 3.0 | 11.0 | 0.00 | 0.00 | 0.00 | 56 | 1011.0 |
| 20260903001002 | 92 | 260 | 3.0 | 11.0 | 0.00 | 0.00 | 0.00 | 56 | 1011.0 |
| 20260903000707 | 93 | 254 | 4.0 | 11.0 | 0.00 | 0.00 | 0.00 | 55 | 1011.0 |
| 20260903000523 | 93 | 252 | 4.0 | 11.0 | 0.00 | 0.00 | 0.00 | 55 | 1011.1 |
| 20260903000207 | 93 | 258 | 5.0 | 15.0 | 0.00 | 0.00 | 0.00 | 55 | 1011.1 |
| 20260903000001 | 93 | 261 | 5.0 | 15.0 | 0.00 | 0.00 | 0.00 | 55 | 1011.1 |
| 20260902235707 | 93 | 264 | 6.0 | 15.0 | 0.00 | 0.00 | 0.00 | 54 | 1011.2 |
| 20260902235523 | 93 | 266 | 6.0 | 15.0 | 0.00 | 0.00 | 0.00 | 54 | 1011.2 |
| 20260902235207 | 93 | 262 | 6.0 | 14.0 | 0.00 | 0.00 | 0.00 | 54 | 1011.2 |
| 20260902235002 | 93 | 258 | 6.0 | 14.0 | 0.00 | 0.00 | 0.00 | 54 | 1011.2 |
| 20260902234706 | 94 | 257 | 6.0 | 14.0 | 0.00 | 0.00 | 0.00 | 53 | 1011.2 |
| 20260902234501 | 94 | 260 | 5.0 | 13.0 | 0.00 | 0.00 | 0.00 | 53 | 1011.3 |
| 20260902234206 | 94 | 259 | 5.0 | 13.0 | 0.00 | 0.00 | 0.00 | 53 | 1011.4 |
| 20260902234023 | 94 | 262 | 5.0 | 13.0 | 0.00 | 0.00 | 0.00 | 54 | 1011.3 |
| 20260902233706 | 94 | 260 | 5.0 | 13.0 | 0.00 | 0.00 | 0.00 | 55 | 1011.4 |
| 20260902233502 | 94 | 255 | 5.0 | 13.0 | 0.00 | 0.00 | 0.00 | 54 | 1011.4 |
| 20260902233206 | 94 | 254 | 5.0 | 13.0 | 0.00 | 0.00 | 0.00 | 53 | 1011.4 |
| 20260902233005 | 94 | 251 | 5.0 | 13.0 | 0.00 | 0.00 | 0.00 | 53 | 1011.3 |
| 20260902232706 | 94 | 255 | 6.0 | 16.0 | 0.00 | 0.00 | 0.00 | 53 | 1011.3 |
| 20260902232502 | 94 | 257 | 5.0 | 16.0 | 0.00 | 0.00 | 0.00 | 53 | 1011.3 |
| 20260902232206 | 94 | 262 | 5.0 | 16.0 | 0.00 | 0.00 | 0.00 | 53 | 1011.4 |
| 20260902232002 | 94 | 267 | 6.0 | 16.0 | 0.00 | 0.00 | 0.00 | 53 | 1011.4 |
| 20260902231706 | 94 | 267 | 5.0 | 13.0 | 0.00 | 0.00 | 0.00 | 52 | 1011.4 |
| 20260902231523 | 94 | 266 | 6.0 | 13.0 | 0.00 | 0.00 | 0.00 | 52 | 1011.5 |
| 20260902231206 | 94 | 267 | 6.0 | 13.0 | 0.00 | 0.00 | 0.00 | 52 | 1011.4 |
| 20260902231023 | 94 | 263 | 6.0 | 13.0 | 0.00 | 0.00 | 0.00 | 52 | 1011.3 |
| 20260902230706 | 94 | 260 | 6.0 | 13.0 | 0.00 | 0.00 | 0.00 | 52 | 1011.3 |
| 20260902230502 | 94 | 256 | 6.0 | 13.0 | 0.00 | 0.00 | 0.00 | 52 | 1011.2 |
| 20260902230206 | 94 | 250 | 6.0 | 16.0 | 0.00 | 0.00 | 0.00 | 51 | 1011.2 |
| 20260902230002 | 95 | 252 | 6.0 | 16.0 | 0.00 | 0.00 | 0.00 | 51 | 1011.2 |
| 20260902225706 | 95 | 248 | 5.0 | 16.0 | 0.00 | 0.00 | 0.00 | 51 | 1011.0 |
| 20260902225523 | 95 | 247 | 5.0 | 16.0 | 0.00 | 0.00 | 0.00 | 51 | 1011.1 |
| 20260902225205 | 95 | 245 | 5.0 | 14.0 | 0.00 | 0.00 | 0.00 | 51 | 1010.9 |
| 20260902225002 | 95 | 241 | 5.0 | 14.0 | 0.00 | 0.00 | 0.00 | 51 | 1011.0 |
| 20260902224705 | 95 | 246 | 6.0 | 14.0 | 0.00 | 0.00 | 0.00 | 51 | 1010.8 |
| 20260902224502 | 96 | 249 | 5.0 | 14.0 | 0.00 | 0.00 | 0.00 | 50 | 1010.6 |
| 20260902224205 | 96 | 258 | 6.0 | 12.0 | 0.00 | 0.00 | 0.00 | 50 | 1010.7 |
| 20260902224002 | 96 | 262 | 6.0 | 14.0 | 0.00 | 0.00 | 0.00 | 49 | 1010.7 |
| 20260902223705 | 96 | 264 | 7.0 | 16.0 | 0.00 | 0.00 | 0.00 | 49 | 1010.7 |
| 20260902223503 | 96 | 265 | 7.0 | 16.0 | 0.00 | 0.00 | 0.00 | 49 | 1010.8 |
| 20260902223205 | 96 | 264 | 6.0 | 16.0 | 0.00 | 0.00 | 0.00 | 48 | 1010.8 |
| 20260902223002 | 96 | 261 | 6.0 | 16.0 | 0.00 | 0.00 | 0.00 | 48 | 1010.8 |
| 20260902222705 | 96 | 250 | 5.0 | 13.0 | 0.00 | 0.00 | 0.00 | 49 | 1010.8 |
| 20260902222501 | 96 | 246 | 4.0 | 13.0 | 0.00 | 0.00 | 0.00 | 48 | 1010.9 |
| 20260902222205 | 97 | 240 | 4.0 | 13.0 | 0.00 | 0.00 | 0.00 | 48 | 1010.9 |
| 20260902222002 | 97 | 233 | 4.0 | 13.0 | 0.00 | 0.00 | 0.00 | 48 | 1010.9 |
| 20260902221705 | 97 | 236 | 4.0 | 9.0 | 0.00 | 0.00 | 0.00 | 49 | 1010.9 |
| 20260902221502 | 97 | 242 | 4.0 | 10.0 | 0.00 | 0.00 | 0.00 | 48 | 1010.8 |
| 20260902221205 | 97 | 250 | 5.0 | 10.0 | 0.00 | 0.00 | 0.00 | 48 | 1010.8 |
| 20260902221002 | 97 | 253 | 5.0 | 11.0 | 0.00 | 0.00 | 0.00 | 48 | 1010.8 |
| 20260902220705 | 97 | 258 | 5.0 | 14.0 | 0.00 | 0.00 | 0.00 | 48 | 1010.7 |
| 20260902220502 | 97 | 257 | 6.0 | 18.0 | 0.00 | 0.00 | 0.00 | 48 | 1010.8 |
| 20260902220205 | 97 | 255 | 8.0 | 18.0 | 0.00 | 0.00 | 0.00 | 48 | 1010.6 |
| 20260902220002 | 97 | 260 | 9.0 | 18.0 | 0.00 | 0.00 | 0.00 | 47 | 1010.8 |
| 20260902215705 | 97 | 264 | 9.0 | 20.0 | 0.00 | 0.00 | 0.00 | 47 | 1010.7 |
| 20260902215502 | 97 | 267 | 8.0 | 20.0 | 0.00 | 0.00 | 0.00 | 47 | 1010.8 |
| 20260902215205 | 97 | 270 | 8.0 | 20.0 | 0.00 | 0.00 | 0.00 | 46 | 1010.8 |
| 20260902215002 | 97 | 269 | 8.0 | 20.0 | 0.00 | 0.00 | 0.00 | 46 | 1010.8 |
| 20260902214705 | 97 | 269 | 8.0 | 22.0 | 0.00 | 0.00 | 0.00 | 46 | 1010.9 |
| 20260902214502 | 98 | 269 | 8.0 | 22.0 | 0.00 | 0.00 | 0.00 | 46 | 1011.0 |
| 20260902214205 | 98 | 266 | 8.0 | 22.0 | 0.00 | 0.00 | 0.00 | 46 | 1010.8 |
| 20260902214002 | 98 | 264 | 8.0 | 22.0 | 0.00 | 0.00 | 0.00 | 46 | 1010.8 |
| 20260902213704 | 98 | 263 | 8.0 | 19.0 | 0.00 | 0.00 | 0.00 | 46 | 1010.8 |
| 20260902213523 | 98 | 261 | 8.0 | 19.0 | 0.00 | 0.00 | 0.00 | 45 | 1010.9 |
| 20260902213204 | 98 | 262 | 9.0 | 19.0 | 0.00 | 0.00 | 0.00 | 46 | 1010.8 |
| 20260902213002 | 97 | 262 | 9.0 | 18.0 | 0.00 | 0.00 | 0.00 | 45 | 1010.8 |
| 20260902212704 | 97 | 255 | 9.0 | 19.0 | 0.00 | 0.00 | 0.00 | 45 | 1010.9 |
| 20260902212502 | 97 | 249 | 8.0 | 19.0 | 0.00 | 0.00 | 0.00 | 45 | 1010.9 |
| 20260902212204 | 97 | 244 | 7.0 | 19.0 | 0.00 | 0.00 | 0.00 | 45 | 1010.8 |
| 20260902212003 | 98 | 234 | 7.0 | 19.0 | 0.00 | 0.00 | 0.00 | 45 | 1010.8 |
| 20260902211704 | 98 | 228 | 7.0 | 14.0 | 0.00 | 0.00 | 0.00 | 45 | 1010.7 |
| 20260902211502 | 98 | 238 | 7.0 | 18.0 | 0.00 | 0.00 | 0.00 | 45 | 1010.8 |
| 20260902211204 | 98 | 231 | 7.0 | 18.0 | 0.00 | 0.00 | 0.00 | 45 | 1010.8 |
| 20260902211005 | 98 | 236 | 7.0 | 18.0 | 0.00 | 0.00 | 0.00 | 46 | 1010.7 |
| 20260902210704 | 98 | 251 | 7.0 | 20.0 | 0.00 | 0.00 | 0.00 | 46 | 1010.8 |
| 20260902210502 | 98 | 254 | 8.0 | 20.0 | 0.00 | 0.00 | 0.00 | 45 | 1010.8 |
| 20260902210204 | 98 | 264 | 10.0 | 20.0 | 0.00 | 0.00 | 0.00 | 46 | 1010.8 |
| 20260902210002 | 98 | 269 | 10.0 | 20.0 | 0.00 | 0.00 | 0.00 | 45 | 1010.7 |
| 20260902205704 | 98 | 265 | 10.0 | 20.0 | 0.00 | 0.00 | 0.00 | 46 | 1010.9 |
| 20260902205502 | 98 | 260 | 10.0 | 20.0 | 0.00 | 0.00 | 0.00 | 45 | 1010.8 |
| 20260902205204 | 98 | 260 | 8.0 | 16.0 | 0.00 | 0.00 | 0.00 | 45 | 1010.9 |
| 20260902205023 | 98 | 254 | 8.0 | 18.0 | 0.00 | 0.00 | 0.00 | 45 | 1010.9 |
| 20260902204704 | 98 | 249 | 6.0 | 18.0 | 0.00 | 0.00 | 0.00 | 45 | 1011.0 |
| 20260902204527 | 98 | 247 | 7.0 | 18.0 | 0.00 | 0.00 | 0.00 | 45 | 1011.0 |
| 20260902204204 | 98 | 245 | 8.0 | 18.0 | 0.00 | 0.00 | 0.00 | 45 | 1011.0 |
| 20260902204002 | 98 | 239 | 8.0 | 17.0 | 0.00 | 0.00 | 0.00 | 45 | 1011.0 |
| 20260902203703 | 97 | 241 | 7.0 | 17.0 | 0.00 | 0.00 | 0.00 | 45 | 1011.0 |
| 20260902203505 | 97 | 237 | 7.0 | 16.0 | 0.00 | 0.00 | 0.00 | 45 | 1011.1 |
| 20260902203203 | 98 | 221 | 5.0 | 14.0 | 0.00 | 0.00 | 0.00 | 45 | 1011.2 |
| 20260902203003 | 98 | 225 | 5.0 | 13.0 | 0.00 | 0.00 | 0.00 | 45 | 1011.2 |
| 20260902202703 | 98 | 235 | 6.0 | 13.0 | 0.00 | 0.00 | 0.00 | 45 | 1011.2 |
| 20260902202502 | 98 | 237 | 6.0 | 13.0 | 0.00 | 0.00 | 0.00 | 45 | 1011.2 |
| 20260902202203 | 98 | 234 | 6.0 | 13.0 | 0.00 | 0.00 | 0.00 | 45 | 1011.3 |
| 20260902202002 | 98 | 243 | 6.0 | 13.0 | 0.00 | 0.00 | 0.00 | 45 | 1011.2 |
| 20260902201703 | 98 | 245 | 7.0 | 18.0 | 0.00 | 0.00 | 0.00 | 45 | 1011.3 |
| 20260902201523 | 98 | 243 | 7.0 | 18.0 | 0.00 | 0.00 | 0.00 | 44 | 1011.4 |
| 20260902201203 | 99 | 250 | 8.0 | 18.0 | 0.00 | 0.00 | 0.00 | 44 | 1011.5 |
| 20260902201002 | 99 | 246 | 7.0 | 18.0 | 0.00 | 0.00 | 0.00 | 44 | 1011.5 |
| 20260902200703 | 99 | 248 | 7.0 | 16.0 | 0.00 | 0.00 | 0.00 | 43 | 1011.5 |
| 20260902200502 | 99 | 248 | 6.0 | 16.0 | 0.00 | 0.00 | 0.00 | 44 | 1011.4 |
| 20260902200203 | 99 | 254 | 5.0 | 16.0 | 0.00 | 0.00 | 0.00 | 44 | 1011.5 |
| 20260902200005 | 99 | 256 | 5.0 | 16.0 | 0.00 | 0.00 | 0.00 | 44 | 1011.6 |
| 20260902195703 | 99 | 253 | 6.0 | 15.0 | 0.00 | 0.00 | 0.00 | 45 | 1011.5 |
| 20260902195503 | 99 | 258 | 6.0 | 15.0 | 0.00 | 0.00 | 0.00 | 44 | 1011.6 |
| 20260902195203 | 99 | 263 | 6.0 | 13.0 | 0.00 | 0.00 | 0.00 | 45 | 1011.8 |
| 20260902195005 | 99 | 264 | 6.0 | 14.0 | 0.00 | 0.00 | 0.00 | 46 | 1011.6 |
| 20260902194703 | 98 | 266 | 7.0 | 16.0 | 0.00 | 0.00 | 0.00 | 45 | 1011.8 |
| 20260902194523 | 99 | 266 | 7.0 | 16.0 | 0.00 | 0.00 | 0.00 | 45 | 1011.8 |
| 20260902194203 | 99 | 261 | 8.0 | 17.0 | 0.00 | 0.00 | 0.00 | 43 | 1011.8 |
| 20260902194003 | 99 | 263 | 7.0 | 17.0 | 0.00 | 0.00 | 0.00 | 44 | 1011.9 |
| 20260902193703 | 99 | 252 | 6.0 | 17.0 | 0.00 | 0.00 | 0.00 | 44 | 1011.9 |
| 20260902193502 | 100 | 254 | 6.0 | 17.0 | 0.00 | 0.00 | 0.00 | 45 | 1011.9 |
| 20260902193203 | 100 | 254 | 5.0 | 15.0 | 0.00 | 0.00 | 0.00 | 44 | 1012.0 |
| 20260902193023 | 100 | 242 | 6.0 | 15.0 | 0.00 | 0.00 | 0.00 | 43 | 1011.9 |
| 20260902192702 | 100 | 246 | 6.0 | 15.0 | 0.00 | 0.00 | 0.00 | 43 | 1012.0 |
| 20260902192506 | 100 | 243 | 5.0 | 13.0 | 0.00 | 0.00 | 0.00 | 45 | 1012.1 |
| 20260902192202 | 100 | 247 | 6.0 | 13.0 | 0.00 | 0.00 | 0.00 | 44 | 1012.2 |
| 20260902192023 | 100 | 257 | 7.0 | 21.0 | 0.00 | 0.00 | 0.00 | 45 | 1012.1 |
| 20260902191702 | 100 | 255 | 7.0 | 21.0 | 0.00 | 0.00 | 0.00 | 45 | 1012.1 |
| 20260902191524 | 100 | 248 | 8.0 | 21.0 | 0.00 | 0.00 | 0.00 | 45 | 1012.1 |
| 20260902191202 | 100 | 244 | 7.0 | 21.0 | 0.00 | 0.00 | 0.00 | 44 | 1012.2 |
| 20260902191023 | 100 | 236 | 6.0 | 17.0 | 0.00 | 0.00 | 0.00 | 44 | 1012.1 |
| 20260902190702 | 100 | 216 | 5.0 | 12.0 | 0.00 | 0.00 | 0.00 | 45 | 1012.1 |
| 20260902190502 | 100 | 221 | 5.0 | 12.0 | 0.00 | 0.00 | 0.00 | 45 | 1012.1 |
| 20260902190202 | 100 | 212 | 5.0 | 12.0 | 0.00 | 0.00 | 0.00 | 46 | 1012.1 |
| 20260902190003 | 100 | 216 | 5.0 | 12.0 | 0.00 | 0.00 | 0.00 | 44 | 1012.0 |
| 20260902185702 | 100 | 221 | 5.0 | 12.0 | 0.00 | 0.00 | 0.00 | 45 | 1012.1 |
| 20260902185502 | 100 | 213 | 5.0 | 13.0 | 0.00 | 0.00 | 0.00 | 45 | 1012.1 |
| 20260902185203 | 100 | 224 | 7.0 | 20.0 | 0.00 | 0.00 | 0.00 | 44 | 1012.1 |
| 20260902185002 | 100 | 226 | 7.0 | 20.0 | 0.00 | 0.00 | 0.00 | 46 | 1012.1 |
| 20260902184702 | 100 | 228 | 6.0 | 20.0 | 0.00 | 0.00 | 0.00 | 45 | 1012.1 |
| 20260902184503 | 100 | 245 | 6.0 | 20.0 | 0.00 | 0.00 | 0.00 | 46 | 1012.1 |
| 20260902184202 | 100 | 248 | 5.0 | 18.0 | 0.00 | 0.00 | 0.00 | 47 | 1012.1 |
| 20260902184003 | 100 | 260 | 5.0 | 15.0 | 0.00 | 0.00 | 0.00 | 47 | 1012.1 |
| 20260902183702 | 100 | 269 | 6.0 | 15.0 | 0.00 | 0.00 | 0.00 | 48 | 1012.1 |
| 20260902183502 | 99 | 271 | 6.0 | 15.0 | 0.00 | 0.00 | 0.00 | 48 | 1012.2 |
| 20260902183202 | 99 | 270 | 6.0 | 15.0 | 0.00 | 0.00 | 0.00 | 49 | 1012.2 |
| 20260902183006 | 99 | 261 | 6.0 | 12.0 | 0.00 | 0.00 | 0.00 | 49 | 1012.3 |
| 20260902182702 | 98 | 269 | 7.0 | 14.0 | 0.00 | 0.00 | 0.00 | 50 | 1012.3 |
| 20260902182503 | 98 | 263 | 6.0 | 14.0 | 0.00 | 0.00 | 0.00 | 50 | 1012.3 |
| 20260902182201 | 98 | 262 | 7.0 | 14.0 | 0.00 | 0.00 | 0.00 | 50 | 1012.3 |
| 20260902182002 | 98 | 262 | 6.0 | 14.0 | 0.00 | 0.00 | 0.00 | 50 | 1012.3 |
| 20260902181701 | 98 | 249 | 5.0 | 13.0 | 0.00 | 0.00 | 0.00 | 51 | 1012.4 |
| 20260902181503 | 98 | 251 | 5.0 | 13.0 | 0.00 | 0.00 | 0.00 | 50 | 1012.4 |
| 20260902181201 | 97 | 250 | 5.0 | 12.0 | 0.00 | 0.00 | 0.00 | 51 | 1012.5 |
| 20260902181003 | 97 | 252 | 5.0 | 12.0 | 0.00 | 0.00 | 0.00 | 51 | 1012.5 |
| 20260902180701 | 96 | 261 | 6.0 | 12.0 | 0.00 | 0.00 | 0.00 | 53 | 1012.5 |
| 20260902180523 | 96 | 268 | 6.0 | 14.0 | 0.00 | 0.00 | 0.00 | 53 | 1012.6 |
| 20260902180201 | 96 | 276 | 8.0 | 15.0 | 0.00 | 0.00 | 0.00 | 54 | 1012.6 |
| 20260902180005 | 96 | 278 | 8.0 | 15.0 | 0.00 | 0.00 | 0.00 | 54 | 1012.6 |
| 20260902175701 | 95 | 284 | 8.0 | 15.0 | 0.00 | 0.00 | 0.00 | 53 | 1012.6 |
| 20260902175502 | 96 | 284 | 9.0 | 16.0 | 0.00 | 0.00 | 0.00 | 53 | 1012.7 |
| 20260902175201 | 96 | 288 | 8.0 | 17.0 | 0.00 | 0.00 | 0.00 | 53 | 1012.6 |
| 20260902175002 | 96 | 289 | 8.0 | 17.0 | 0.00 | 0.00 | 0.00 | 52 | 1012.6 |
| 20260902174701 | 96 | 286 | 9.0 | 17.0 | 0.00 | 0.00 | 0.00 | 51 | 1012.8 |
| 20260902174503 | 97 | 286 | 9.0 | 17.0 | 0.00 | 0.00 | 0.00 | 50 | 1012.7 |
| 20260902174201 | 97 | 282 | 10.0 | 17.0 | 0.00 | 0.00 | 0.00 | 49 | 1012.7 |
| 20260902174024 | 97 | 280 | 10.0 | 17.0 | 0.00 | 0.00 | 0.00 | 49 | 1012.7 |
| 20260902173701 | 98 | 278 | 9.0 | 16.0 | 0.00 | 0.00 | 0.00 | 49 | 1012.8 |
| 20260902173523 | 98 | 273 | 9.0 | 16.0 | 0.00 | 0.00 | 0.00 | 49 | 1012.9 |
| 20260902173201 | 98 | 264 | 8.0 | 16.0 | 0.00 | 0.00 | 0.00 | 48 | 1012.9 |
| 20260902173002 | 98 | 256 | 7.0 | 16.0 | 0.00 | 0.00 | 0.00 | 49 | 1013.0 |
| 20260902172701 | 99 | 249 | 6.0 | 16.0 | 0.00 | 0.00 | 0.00 | 48 | 1012.9 |
| 20260902172524 | 99 | 247 | 6.0 | 16.0 | 0.00 | 0.00 | 0.00 | 47 | 1013.0 |
| 20260902172201 | 99 | 254 | 6.0 | 16.0 | 0.00 | 0.00 | 0.00 | 48 | 1013.1 |
| 20260902172006 | 99 | 257 | 5.0 | 16.0 | 0.00 | 0.00 | 0.00 | 48 | 1013.2 |
| 20260902171701 | 100 | 252 | 5.0 | 16.0 | 0.00 | 0.00 | 0.00 | 48 | 1013.4 |
| 20260902171502 | 100 | 258 | 4.0 | 16.0 | 0.00 | 0.00 | 0.00 | 49 | 1013.2 |
| 20260902171200 | 99 | 243 | 4.0 | 11.0 | 0.00 | 0.00 | 0.00 | 51 | 1013.1 |
| 20260902171002 | 99 | 245 | 4.0 | 12.0 | 0.00 | 0.00 | 0.00 | 50 | 1013.2 |
| 20260902170700 | 99 | 253 | 6.0 | 19.0 | 0.00 | 0.00 | 0.00 | 49 | 1013.3 |
| 20260902170503 | 99 | 254 | 5.0 | 19.0 | 0.00 | 0.00 | 0.00 | 49 | 1013.2 |
| 20260902170200 | 99 | 261 | 6.0 | 19.0 | 0.00 | 0.00 | 0.00 | 49 | 1013.2 |
| 20260902170003 | 99 | 271 | 6.0 | 19.0 | 0.00 | 0.00 | 0.00 | 49 | 1013.3 |
| 20260902165700 | 99 | 270 | 5.0 | 11.0 | 0.00 | 0.00 | 0.00 | 50 | 1013.3 |
| 20260902165505 | 99 | 263 | 5.0 | 11.0 | 0.00 | 0.00 | 0.00 | 50 | 1013.4 |
| 20260902165200 | 99 | 262 | 5.0 | 14.0 | 0.00 | 0.00 | 0.00 | 50 | 1013.4 |
| 20260902165003 | 99 | 254 | 4.0 | 14.0 | 0.00 | 0.00 | 0.00 | 50 | 1013.4 |
| 20260902164700 | 99 | 256 | 4.0 | 14.0 | 0.00 | 0.00 | 0.00 | 51 | 1013.4 |
| 20260902164503 | 98 | 264 | 4.0 | 14.0 | 0.00 | 0.00 | 0.00 | 51 | 1013.4 |
| 20260902164200 | 98 | 260 | 4.0 | 10.0 | 0.00 | 0.00 | 0.00 | 52 | 1013.5 |
| 20260902164023 | 98 | 255 | 4.0 | 10.0 | 0.00 | 0.00 | 0.00 | 51 | 1013.5 |
| 20260902163700 | 98 | 254 | 4.0 | 10.0 | 0.00 | 0.00 | 0.00 | 52 | 1013.4 |
| 20260902163505 | 98 | 251 | 4.0 | 10.0 | 0.00 | 0.00 | 0.00 | 52 | 1013.4 |
| 20260902163200 | 98 | 259 | 3.0 | 8.0 | 0.00 | 0.00 | 0.00 | 52 | 1013.5 |
| 20260902163003 | 98 | 262 | 3.0 | 8.0 | 0.00 | 0.00 | 0.00 | 51 | 1013.5 |
| 20260902162700 | 98 | 261 | 4.0 | 12.0 | 0.00 | 0.00 | 0.00 | 53 | 1013.6 |
| 20260902162503 | 98 | 258 | 4.0 | 12.0 | 0.00 | 0.00 | 0.00 | 52 | 1013.6 |
| 20260902162200 | 98 | 263 | 5.0 | 12.0 | 0.00 | 0.00 | 0.00 | 52 | 1013.7 |
| 20260902162006 | 98 | 262 | 5.0 | 12.0 | 0.00 | 0.00 | 0.00 | 52 | 1013.7 |
| 20260902161700 | 97 | 254 | 4.0 | 12.0 | 0.00 | 0.00 | 0.00 | 51 | 1013.7 |
| 20260902161503 | 97 | 252 | 4.0 | 12.0 | 0.00 | 0.00 | 0.00 | 51 | 1013.7 |
| 20260902161200 | 97 | 242 | 3.0 | 9.0 | 0.00 | 0.00 | 0.00 | 53 | 1013.7 |
| 20260902161002 | 96 | 235 | 3.0 | 9.0 | 0.00 | 0.00 | 0.00 | 53 | 1013.7 |
| 20260902160659 | 96 | 249 | 3.0 | 9.0 | 0.00 | 0.00 | 0.00 | 56 | 1013.8 |
| 20260902160503 | 96 | 246 | 3.0 | 9.0 | 0.00 | 0.00 | 0.00 | 56 | 1013.8 |
| 20260902160159 | 95 | 242 | 3.0 | 9.0 | 0.00 | 0.00 | 0.00 | 56 | 1013.9 |
| 20260902160003 | 95 | 242 | 3.0 | 9.0 | 0.00 | 0.00 | 0.00 | 58 | 1013.8 |
| 20260902155659 | 95 | 220 | 3.0 | 9.0 | 0.00 | 0.00 | 0.00 | 57 | 1013.7 |
| 20260902155502 | 95 | 233 | 3.0 | 9.0 | 0.00 | 0.00 | 0.00 | 57 | 1013.7 |
| 20260902155159 | 94 | 256 | 3.0 | 10.0 | 0.00 | 0.00 | 0.00 | 60 | 1013.8 |
| 20260902155003 | 94 | 259 | 3.0 | 10.0 | 0.00 | 0.00 | 0.00 | 61 | 1013.8 |
| 20260902154659 | 93 | 275 | 6.0 | 11.0 | 0.00 | 0.00 | 0.00 | 61 | 1013.8 |
| 20260902154506 | 93 | 274 | 6.0 | 11.0 | 0.00 | 0.00 | 0.00 | 60 | 1013.9 |
| 20260902154159 | 93 | 276 | 6.0 | 11.0 | 0.00 | 0.00 | 0.00 | 60 | 1014.0 |
| 20260902154003 | 92 | 274 | 6.0 | 11.0 | 0.00 | 0.00 | 0.00 | 60 | 1014.0 |
| 20260902153659 | 92 | 286 | 4.0 | 11.0 | 0.00 | 0.00 | 0.00 | 60 | 1014.0 |
| 20260902153503 | 92 | 286 | 4.0 | 11.0 | 0.00 | 0.00 | 0.00 | 61 | 1013.9 |
| 20260902153159 | 92 | 287 | 4.0 | 11.0 | 0.00 | 0.00 | 0.00 | 63 | 1013.9 |
| 20260902153024 | 92 | 288 | 4.0 | 11.0 | 0.00 | 0.00 | 0.00 | 64 | 1013.9 |
| 20260902152659 | 91 | 278 | 6.0 | 12.0 | 0.00 | 0.00 | 0.00 | 63 | 1013.9 |
| 20260902152502 | 91 | 277 | 6.0 | 12.0 | 0.00 | 0.00 | 0.00 | 63 | 1013.9 |
| 20260902152159 | 91 | 273 | 6.0 | 12.0 | 0.00 | 0.00 | 0.00 | 64 | 1013.8 |
| 20260902152024 | 91 | 274 | 6.0 | 12.0 | 0.00 | 0.00 | 0.00 | 63 | 1013.9 |
| 20260902151659 | 91 | 262 | 4.0 | 12.0 | 0.00 | 0.00 | 0.00 | 64 | 1013.8 |
| 20260902151503 | 91 | 261 | 4.0 | 12.0 | 0.00 | 0.00 | 0.00 | 64 | 1013.8 |
| 20260902151159 | 90 | 257 | 4.0 | 9.0 | 0.00 | 0.00 | 0.00 | 66 | 1013.9 |
| 20260902151006 | 90 | 257 | 4.0 | 9.0 | 0.00 | 0.00 | 0.00 | 66 | 1013.9 |
| 20260902150659 | 90 | 262 | 4.0 | 12.0 | 0.00 | 0.00 | 0.00 | 66 | 1013.8 |
| 20260902150503 | 90 | 265 | 4.0 | 12.0 | 0.00 | 0.00 | 0.00 | 67 | 1013.8 |
| 20260902150159 | 89 | 260 | 4.0 | 12.0 | 0.00 | 0.00 | 0.00 | 67 | 1013.9 |
| 20260902150003 | 89 | 260 | 4.0 | 12.0 | 0.00 | 0.00 | 0.00 | 67 | 1013.9 |
| 20260902145659 | 89 | 267 | 4.0 | 11.0 | 0.00 | 0.00 | 0.00 | 67 | 1013.8 |
| 20260902145502 | 89 | 266 | 4.0 | 11.0 | 0.00 | 0.00 | 0.00 | 67 | 1013.8 |
| 20260902145159 | 89 | 260 | 4.0 | 11.0 | 0.00 | 0.00 | 0.00 | 69 | 1013.9 |
| 20260902145006 | 89 | 263 | 4.0 | 11.0 | 0.00 | 0.00 | 0.00 | 69 | 1013.9 |
| 20260902144658 | 88 | 263 | 4.0 | 8.0 | 0.00 | 0.00 | 0.00 | 70 | 1013.9 |
| 20260902144503 | 88 | 260 | 4.0 | 8.0 | 0.00 | 0.00 | 0.00 | 70 | 1013.9 |
| 20260902144158 | 88 | 280 | 4.0 | 10.0 | 0.00 | 0.00 | 0.00 | 71 | 1013.9 |
| 20260902144003 | 88 | 277 | 4.0 | 10.0 | 0.00 | 0.00 | 0.00 | 71 | 1013.7 |
| 20260902143658 | 88 | 282 | 4.0 | 10.0 | 0.00 | 0.00 | 0.00 | 71 | 1013.7 |
| 20260902143506 | 87 | 286 | 4.0 | 10.0 | 0.00 | 0.00 | 0.00 | 71 | 1013.8 |
| 20260902143158 | 87 | 288 | 3.0 | 8.0 | 0.00 | 0.00 | 0.00 | 71 | 1013.8 |
| 20260902143024 | 87 | 289 | 3.0 | 8.0 | 0.00 | 0.00 | 0.00 | 73 | 1013.8 |
| 20260902142658 | 87 | 272 | 3.0 | 11.0 | 0.00 | 0.00 | 0.00 | 73 | 1013.9 |
| 20260902142502 | 87 | 267 | 3.0 | 11.0 | 0.00 | 0.00 | 0.00 | 74 | 1013.9 |
| 20260902142158 | 86 | 263 | 3.0 | 11.0 | 0.00 | 0.00 | 0.00 | 75 | 1013.9 |
| 20260902142003 | 86 | 262 | 3.0 | 11.0 | 0.00 | 0.00 | 0.00 | 75 | 1013.8 |
| 20260902141658 | 86 | 274 | 4.0 | 8.0 | 0.00 | 0.00 | 0.00 | 76 | 1013.8 |
| 20260902141503 | 86 | 276 | 4.0 | 8.0 | 0.00 | 0.00 | 0.00 | 76 | 1013.8 |
| 20260902141158 | 86 | 276 | 4.0 | 8.0 | 0.00 | 0.00 | 0.00 | 75 | 1013.8 |